SCP
0 0 0 0 0 0 0 0 0 0 0 0 0 0 0 0 0 0 0 0 0 1 1 1 1 1 1 1 1 1 1 1 1 1 1 1 1 1 1 1 1 1 1 1
0 0 0 0 0 0 0 0 0 0 0 0 0 0 0 0 0 0 0 0 0 0 1 1 1 1 1 1 1 1 1 1 1 1 1 1 1 1 1 1 1 0 0 0
0 0 0 0 0 0 0 0 0 0 0 0 0 0 0 0 0 0 0 0 0 0 0 1 1 1 1 1 1 1 1 1 1 1 1 1 1 1 1 1 1 0 0 0
0 0 0 0 0 0 0 0 0 0 0 0 0 0 0 0 0 0 0 0 0 0 0 1 1 1 1 1 1 1 1 1 1 1 1 1 1 1 1 1 0 0 0 0
0 0 0 0 0 0 0 0 0 0 0 0 0 0 0 0 0 0 0 0 0 0 0 1 1 1 1 1 1 1 1 1 1 1 1 1 1 1 1 1 0 0 0 0
0 0 0 0 0 0 0 0 0 0 0 0 0 0 0 0 0 0 0 0 0 0 0 1 1 1 1 1 1 1 1 1 1 1 1 1 1 1 1 1 0 0 0 0
0 0 0 0 0 0 0 0 0 0 0 0 0 0 0 0 0 0 0 0 0 0 0 0 1 1 1 1 1 1 1 1 1 1 1 1 1 1 1 0 0 0 0 0
0 0 0 0 0 0 0 0 0 0 0 0 0 0 0 0 0 0 0 0 0 0 0 0 1 1 1 1 1 1 1 1 1 1 1 1 1 1 0 0 0 0 0 0
0 0 0 0 0 0 0 0 0 0 0 0 0 0 0 0 0 0 0 0 0 0 0 0 0 1 1 1 1 1 1 1 1 1 1 1 0 0 0 0 0 0 0 0
0 0 0 0 0 0 0 0 0 0 0 0 0 0 0 0 0 0 0 0 0 0 0 0 0 0 1 1 1 1 1 1 1 1 1 0 0 0 0 0 0 0 0 0
0 0 0 0 0 0 0 0 0 0 0 0 0 0 0 0 0 0 0 0 0 0 0 0 0 0 0 0 1 1 1 1 1 1 1 0 0 0 0 0 0 0 0 0
0 0 0 0 0 0 0 0 0 0 0 0 0 0 0 0 0 0 0 0 0 0 0 0 0 0 0 0 0 0 1 1 1 1 0 0 0 0 0 0 0 0 0 0
0 0 0 0 0 0 0 0 0 0 0 0 0 0 0 0 0 0 0 0 0 0 0 0 0 0 0 0 0 0 1 1 1 0 0 0 0 0 0 0 0 0 0 0
0 0 0 0 0 0 0 0 0 0 0 0 0 0 0 0 0 0 0 0 0 0 0 0 0 0 0 0 0 0 0 1 0 0 0 0 0 0 0 0 0 0 0 0
0 0 0 0 0 0 0 0 0 0 0 0 0 0 0 0 0 0 0 0 0 0 0 0 0 0 0 0 0 0 0 0 0 0 0 0 0 0 0 0 0 0 0 0
0 0 0 0 0 0 0 0 0 0 0 0 0 0 0 0 0 0 0 0 0 0 0 0 0 0 0 0 0 0 0 0 0 0 0 0 0 0 0 0 0 0 0 0
0 0 0 0 0 0 0 0 0 0 0 0 0 0 0 0 0 0 0 0 0 0 0 0 0 0 0 0 0 0 0 0 0 0 0 0 0 0 0 0 0 0 0 0
0 0 0 0 0 0 0 0 0 0 0 0 0 0 0 0 0 0 0 0 0 0 0 0 0 0 0 0 0 0 0 0 0 0 0 0 0 0 0 0 0 0 0 0
0 0 0 0 0 0 0 0 0 0 0 0 0 0 0 0 0 0 0 0 0 0 0 0 0 0 0 0 0 0 0 0 0 0 0 0 0 0 0 0 0 0 0 0
0 0 0 0 0 0 0 0 0 0 0 0 0 0 0 0 0 0 0 0 0 0 0 0 0 0 0 0 0 0 0 0 0 0 0 0 0 0 0 0 0 0 0 0
0 0 0 0 0 0 0 0 0 0 0 0 0 0 0 0 0 0 0 0 0 0 0 0 0 0 0 0 0 0 0 0 0 0 0 0 0 0 0 0 0 0 0 0
0 0 0 0 0 0 0 0 0 0 0 0 0 0 0 0 0 0 0 0 0 0 0 0 0 0 0 0 0 0 0 0 0 0 0 0 0 0 0 0 0 0 0 0
0 0 0 0 0 0 0 0 0 0 0 0 0 0 0 0 0 0 0 0 0 0 0 0 0 0 0 0 0 0 0 0 0 0 0 0 0 0 0 0 0 0 0 0
0 0 0 0 0 0 0 0 0 0 0 0 0 0 0 0 0 0 0 0 0 0 0 0 0 0 0 0 0 0 0 0 0 0 0 0 0 0 0 0 0 0 0 0
0 0 0 0 0 0 0 0 0 0 0 0 0 0 0 0 0 0 0 0 0 0 0 0 0 0 0 0 0 0 0 0 0 0 0 0 0 0 0 0 0 0 0 0
0 0 0 0 0 0 0 0 0 0 0 0 0 0 0 0 0 0 0 0 0 0 0 0 0 0 0 0 0 0 0 0 0 0 0 0 0 0 0 0 0 0 0 0
Wind_Speed
5 6 3 1 4 5 4 5 5 2 1 4 5 5 4 2 3 3 3 3 3 2 3 3 4 4 4 3 3 3 2 2 2 2 2 2 2 1 1 1 1 2 2 2
6 3 1 2 2 4 5 6 4 2 1 5 6 6 5 3 4 3 3 3 3 3 3 3 4 4 4 4 4 4 3 3 3 2 1 1 1 1 1 1 0 1 2 2
3 2 1 3 4 5 6 6 5 5 4 6 7 8 4 4 3 3 3 3 3 3 3 4 4 5 4 4 4 3 3 3 2 2 1 1 1 1 1 0 0 0 1 1
2 1 3 5 4 5 6 3 5 6 9 6 7 8 3 4 4 4 3 3 3 3 3 4 4 5 4 4 4 4 3 3 2 2 2 2 1 1 1 1 0 0 0 1
1 1 3 4 4 5 5 4 6 8 9 9 7 9 3 3 5 3 2 2 2 3 3 3 4 4 3 3 4 4 4 3 3 2 3 2 1 0 1 0 1 1 1 1
3 2 3 4 3 2 2 5 7 9 9 9 5 8 5 2 3 2 0 1 1 2 3 3 4 4 3 3 3 3 4 3 3 2 2 2 1 1 1 0 0 1 1 1
3 2 2 1 3 3 4 7 6 7 7 5 2 7 3 3 3 3 2 1 0 1 2 3 4 4 3 3 3 3 4 3 3 2 2 1 1 2 1 0 1 2 1 1
5 2 1 2 5 6 6 8 7 8 8 7 6 6 2 3 3 2 1 1 0 1 1 2 3 3 3 3 3 3 3 3 3 2 2 1 1 1 0 1 2 2 2 2
6 4 3 4 5 7 6 6 7 9 10 9 6 4 2 1 0 1 1 1 1 1 0 1 2 3 3 3 2 3 3 3 2 2 2 1 0 1 1 1 2 2 2 2
6 7 5 4 6 4 6 7 6 8 7 8 7 6 3 1 2 2 1 1 1 1 1 1 1 2 3 3 3 3 3 2 2 2 2 1 1 0 1 2 3 3 3 2
6 7 6 6 6 8 5 5 7 8 8 8 8 4 5 4 4 4 3 2 1 1 1 0 1 2 2 3 3 3 3 3 2 2 1 1 0 0 1 1 2 2 2 2
5 7 8 8 5 4 5 6 7 8 8 9 9 4 3 4 4 4 4 3 2 1 1 0 0 1 2 2 2 3 3 2 2 2 2 1 0 1 1 2 2 2 3 3
5 6 8 5 3 3 4 5 7 8 9 9 10 3 3 4 5 5 4 3 1 1 1 1 1 2 2 2 2 2 2 2 2 2 2 1 1 1 2 2 2 2 3 3
6 7 8 10 9 9 9 9 9 10 9 10 10 9 6 7 6 5 4 3 2 1 1 1 1 2 2 2 2 2 2 2 2 2 1 1 1 1 2 1 2 2 3 3
6 8 9 10 11 11 11 11 10 9 10 11 10 9 8 7 6 5 4 3 2 2 2 1 1 1 1 2 2 2 2 2 2 1 1 1 1 1 1 1 2 2 3 3
5 7 8 10 9 10 10 9 9 8 8 9 9 7 7 6 4 4 4 3 3 3 2 1 1 1 1 2 3 3 3 2 2 1 1 0 1 1 1 1 2 2 3 3
5 6 8 8 7 9 6 3 5 5 6 8 8 7 6 6 5 4 3 3 4 4 3 1 1 2 2 2 2 3 2 2 2 1 1 1 0 1 1 2 2 2 3 3
7 7 6 7 8 6 3 5 6 6 4 5 6 7 7 6 5 3 3 3 4 4 3 2 1 1 2 2 2 2 2 2 2 1 1 1 1 1 1 2 2 2 3 3
6 6 6 6 7 6 1 5 7 7 5 5 6 7 6 5 3 1 4 4 5 4 2 1 1 1 1 1 2 2 2 2 1 1 1 1 0 0 1 2 2 2 3 3
3 6 6 7 8 5 5 7 8 8 4 7 8 7 6 6 6 3 3 4 3 3 2 0 1 1 1 1 2 2 2 2 1 1 1 1 0 1 1 2 2 2 2 3
4 5 6 8 7 3 6 7 7 5 6 9 9 8 6 6 6 5 3 3 2 2 1 0 0 1 1 1 2 3 2 1 1 0 1 0 0 1 1 2 2 2 2 3
7 5 5 6 6 3 7 7 6 8 8 8 8 7 5 4 4 3 2 2 2 1 1 0 1 1 1 2 2 2 2 1 1 1 1 1 0 1 1 1 2 3 3 3
5 5 5 5 5 6 7 8 8 8 8 8 7 6 4 4 3 3 2 2 2 1 1 0 1 1 1 2 2 2 1 1 2 1 1 1 0 1 1 1 2 2 2 3
4 4 7 8 7 8 8 7 8 8 7 7 6 5 4 3 3 3 2 2 2 1 1 1 1 1 1 2 2 2 2 2 2 1 1 1 1 0 0 1 2 3 3 4
8 6 8 10 9 8 5 7 9 9 7 6 6 5 4 3 3 2 2 2 1 1 1 1 2 2 1 2 1 2 3 3 2 2 1 1 1 0 1 1 2 4 4 4
5 7 8 8 8 9 10 9 10 9 7 6 5 4 3 3 3 2 2 2 2 2 2 2 2 2 2 2 2 2 3 3 3 3 2 1 1 0 1 1 1 1 3 3
Wind_Direction
216 230 231 280 298 318 292 277 276 279 278 266 270 271 270 245 228 217 196 199 202 195 175 156 162 167 159 154 159 163 169 167 194 206 213 207 202 215 221 217 226 254 256 242
214 210 323 290 274 265 259 261 265 266 228 272 277 269 254 230 236 229 219 215 211 206 177 161 169 170 170 169 174 170 171 172 196 195 213 231 243 255 240 241 190 264 263 250
284 27 1 269 257 262 262 270 285 288 276 243 259 258 224 201 210 209 220 220 216 212 199 176 176 178 180 180 184 174 164 163 175 184 189 171 181 213 213 207 158 317 278 269
277 52 258 263 272 284 279 302 285 271 268 270 270 281 235 206 212 217 219 217 214 205 200 182 178 179 187 187 177 164 156 159 163 178 183 189 214 225 267 277 80 223 218 242
298 322 282 290 324 308 323 321 279 272 272 273 257 273 271 213 240 238 209 209 206 203 200 181 171 168 170 173 166 158 156 165 172 176 175 208 228 141 87 45 75 270 214 231
290 270 294 325 322 294 287 266 256 247 253 260 276 281 279 270 307 313 251 221 220 215 202 184 158 148 153 156 157 156 166 172 173 175 175 202 178 125 101 69 11 261 249 250
251 213 176 278 293 237 267 280 273 259 254 273 287 273 301 26 1 333 306 300 236 218 207 190 173 159 149 156 161 168 167 163 164 172 173 174 171 176 169 262 281 287 286 274
292 281 1 333 311 301 283 283 296 299 299 304 274 266 21 45 19 355 5 88 118 231 220 186 172 165 163 159 165 166 159 156 155 154 144 137 168 201 91 333 305 288 295 307
327 320 341 324 307 290 283 287 319 293 284 280 273 267 206 149 212 14 42 74 69 50 145 174 163 165 163 162 161 164 152 150 152 141 136 139 149 353 3 316 277 288 301 298
319 301 300 301 266 254 302 308 286 277 289 290 285 280 305 323 315 291 275 317 9 34 60 141 162 162 166 171 163 159 155 154 157 150 155 150 141 67 328 310 304 302 304 312
317 288 290 281 284 309 291 271 286 289 288 292 295 318 25 356 322 307 293 300 311 328 330 60 160 169 179 176 166 167 169 164 151 144 151 160 162 215 302 302 300 303 304 301
336 297 290 290 296 298 289 299 301 295 292 284 288 309 34 359 338 324 320 315 315 296 293 51 174 176 192 190 185 174 177 172 162 158 154 142 259 288 301 307 302 303 299 298
325 290 285 270 216 212 284 300 295 288 282 279 279 291 58 342 328 328 327 324 306 273 271 232 203 199 197 197 198 189 185 173 169 157 153 163 248 286 297 305 306 305 303 305
290 273 280 293 308 312 301 298 292 278 278 282 288 302 324 331 329 331 329 317 286 254 256 242 210 209 193 195 203 196 182 165 169 166 165 180 253 282 279 290 304 307 303 300
297 276 280 285 291 291 291 292 291 285 286 289 300 306 331 337 331 331 329 318 299 274 268 242 222 199 192 196 194 179 164 158 175 183 172 194 260 274 266 291 298 297 297 296
302 287 289 282 281 285 287 289 286 286 288 287 292 309 356 351 341 340 336 322 308 292 275 243 219 216 201 206 193 168 159 161 178 188 208 191 248 281 292 302 309 313 316 318
279 278 287 287 300 284 271 312 302 294 301 306 317 342 345 335 331 329 329 319 320 316 295 255 228 234 223 208 190 170 160 167 182 191 211 197 232 311 312 315 334 330 326 328
268 280 277 287 293 275 26 8 332 311 335 342 337 338 339 340 330 327 343 335 324 315 304 284 253 241 221 189 178 172 163 167 181 190 195 193 210 292 325 322 333 330 324 325
240 266 282 283 284 282 308 5 340 311 314 1 345 344 347 343 308 344 10 345 325 319 319 305 260 226 198 177 180 167 158 163 182 180 188 180 212 307 312 325 335 331 329 333
216 246 265 280 289 298 5 360 333 292 277 26 352 338 335 322 310 2 357 327 333 349 356 346 171 159 168 167 181 179 171 170 186 219 192 170 236 291 307 329 323 328 322 320
281 265 264 280 282 293 22 355 327 303 350 345 330 324 317 318 338 350 330 330 351 3 12 28 162 151 157 172 190 190 182 161 174 219 165 151 211 290 315 327 319 311 307 321
293 288 284 284 277 320 19 349 341 331 324 318 317 318 315 325 340 342 341 345 343 3 12 336 189 161 167 183 197 193 183 159 158 174 181 173 187 305 354 333 324 321 315 302
276 304 306 294 302 332 323 318 323 322 315 316 313 312 301 299 312 326 335 333 328 343 8 262 212 179 184 188 200 202 174 164 162 167 171 159 216 324 337 318 322 315 310 319
269 287 279 280 283 305 309 316 326 325 318 318 315 306 289 285 294 305 316 321 317 309 291 249 220 195 185 181 187 195 174 172 174 173 172 190 214 273 27 311 323 328 334 339
290 281 273 274 291 303 306 326 329 325 321 318 313 305 293 279 283 289 294 293 288 267 250 240 230 222 207 181 186 188 171 176 178 178 187 208 215 358 324 330 336 331 348 349
262 272 281 293 312 305 304 311 314 312 309 308 304 299 288 270 274 271 269 266 256 246 232 224 224 229 221 197 190 183 179 182 187 192 202 227 235 251 295 308 313 241 257 249